SCP
0 0 0 0 0 0 0 0 0 0 0 0 0 0 0 0 0 0 0 0 1 1 1 1 1 1 0 0 0 0 0 0 0 0 1 1 0 0 0 0 0 0 0 0
0 0 0 0 0 0 0 0 0 0 0 0 0 0 0 0 0 0 0 0 1 1 1 1 1 1 1 0 0 0 0 0 0 0 0 1 1 0 0 0 0 0 0 0
0 0 0 0 0 0 0 0 0 0 0 0 0 0 0 0 0 0 0 0 0 1 1 1 1 1 1 1 0 0 0 0 0 0 0 1 1 0 0 0 0 0 0 0
0 0 0 0 0 0 0 0 0 0 0 0 0 0 0 0 0 0 0 0 0 0 1 0 0 1 1 1 1 1 1 1 0 0 0 0 1 0 0 0 0 0 0 0
0 0 0 0 0 0 0 0 0 0 0 0 0 0 0 0 0 0 0 0 0 0 0 0 0 1 1 1 1 1 1 1 0 0 0 0 0 0 0 0 0 0 0 0
0 0 0 0 0 0 0 0 0 0 0 0 0 0 0 0 0 0 0 0 0 0 0 0 0 1 1 2 2 1 1 1 1 0 0 0 0 0 0 0 0 0 0 0
0 0 0 0 0 0 0 0 0 0 0 0 0 0 0 0 0 0 0 0 0 0 0 0 0 1 2 2 2 2 1 1 1 0 0 0 0 0 0 0 1 1 1 0
0 0 0 0 0 0 0 0 0 0 0 0 0 0 0 0 0 0 0 0 0 0 0 0 0 1 1 2 2 2 1 1 1 0 0 0 0 0 0 1 1 1 1 1
0 0 0 0 0 0 0 0 0 0 0 0 0 0 0 0 0 0 0 0 0 0 0 0 0 1 1 1 2 2 1 1 1 0 0 0 0 0 0 1 1 1 1 1
0 0 0 0 0 0 0 0 0 0 0 0 0 0 0 0 0 0 0 0 0 0 0 0 0 0 0 1 2 2 1 1 1 0 0 0 0 0 0 1 1 1 1 1
0 0 0 0 0 0 0 0 0 0 0 0 0 0 0 0 0 0 0 0 0 0 0 0 0 0 0 1 2 2 2 1 1 0 0 0 0 0 0 1 1 1 1 1
0 0 0 0 0 0 0 0 0 0 0 0 0 0 0 0 0 0 0 0 0 0 0 0 0 0 0 1 2 3 2 2 1 1 0 0 0 0 0 0 0 0 1 1
0 0 0 0 0 0 0 0 0 0 0 0 0 0 0 0 0 0 0 0 0 0 0 0 0 0 0 1 2 2 2 2 1 1 0 0 0 0 0 0 0 0 0 0
0 0 0 0 0 0 0 0 0 0 0 0 0 0 0 1 1 1 1 1 1 0 0 0 0 0 0 1 2 2 2 1 1 1 0 0 0 0 0 0 0 0 0 0
0 0 0 0 0 0 0 0 0 0 0 0 0 0 1 1 1 1 1 2 1 1 0 0 0 0 0 1 1 2 1 1 1 0 0 0 0 0 0 0 0 0 0 0
0 0 0 0 0 0 0 0 0 0 0 0 0 0 1 1 1 1 1 1 1 1 0 0 0 0 1 1 1 2 1 1 0 0 0 0 0 0 0 0 0 0 0 0
0 0 0 0 0 0 0 0 0 0 0 0 0 0 0 0 0 0 0 0 0 0 0 0 0 0 0 1 2 2 2 1 0 0 0 0 0 0 0 0 0 0 0 0
0 0 0 0 0 0 0 0 0 0 0 0 0 0 0 0 0 0 0 0 0 0 0 0 0 0 1 2 3 3 2 1 0 0 0 0 0 0 0 0 0 0 0 0
0 0 0 0 0 0 0 0 0 0 0 0 0 0 0 0 0 0 0 0 0 0 0 0 0 0 1 3 4 3 2 0 0 0 0 0 0 0 0 0 0 0 0 0
0 0 0 0 0 0 0 0 0 0 0 0 0 0 0 0 0 0 0 0 0 0 0 0 0 0 2 3 3 2 1 0 0 0 0 0 0 0 0 0 0 0 0 0
0 0 0 0 0 0 0 0 0 0 0 0 0 0 0 0 0 0 0 0 0 0 0 0 0 1 2 3 2 1 1 0 0 0 0 0 0 0 0 0 0 0 0 0
0 0 0 0 0 0 0 0 0 0 0 0 0 0 0 0 0 0 0 0 0 0 0 0 0 0 1 1 1 1 0 0 0 0 0 0 0 0 0 0 0 0 0 0
0 0 0 0 0 0 0 0 0 0 0 0 0 0 0 0 0 0 0 0 0 0 0 0 0 0 0 0 0 0 0 0 0 0 0 0 0 0 0 0 0 0 0 0
0 0 0 0 0 0 0 0 0 0 0 0 0 0 0 0 0 0 0 0 0 0 0 0 0 0 0 0 0 0 0 0 0 0 0 0 0 0 0 0 0 0 0 0
0 0 0 0 0 0 0 0 0 0 0 0 0 0 0 0 0 0 0 0 0 0 0 0 0 0 0 0 0 0 0 0 0 0 0 0 0 0 0 0 0 0 0 0
0 0 0 0 0 0 0 0 0 0 0 0 0 0 0 0 0 0 0 0 0 0 0 0 0 0 0 0 0 0 0 0 0 0 0 0 0 0 0 0 0 0 0 0
0 0 0 0 0 0 0 0 0 0 0 0 0 0 0 0 0 0 0 0 0 0 0 0 0 0 0 0 0 0 0 0 0 0 0 0 0 0 0 0 0 0 0 0
Wind_Speed
5 6 4 4 5 4 4 6 7 7 6 6 5 4 4 3 2 1 1 2 3 3 3 3 3 3 3 3 3 4 4 4 5 5 4 4 4 4 4 4 5 4 4 3
3 4 4 4 6 5 5 4 4 4 5 5 3 1 0 1 1 2 2 3 3 3 3 4 4 4 3 3 3 4 5 4 4 4 4 4 4 4 4 4 4 4 4 4
3 4 3 5 5 5 4 3 4 5 6 2 2 3 4 4 3 3 3 3 3 4 5 5 5 5 5 5 3 4 5 4 4 4 4 4 4 3 4 4 4 4 4 4
1 2 4 7 4 3 3 3 3 3 3 3 4 4 4 3 4 4 4 3 3 3 3 4 5 5 5 3 3 4 4 4 4 5 4 4 4 4 4 4 4 4 4 5
2 2 6 6 3 1 1 3 3 2 2 2 0 2 2 2 2 3 3 3 3 3 3 3 3 4 4 3 3 4 4 5 5 5 5 5 5 5 4 3 4 4 4 5
3 3 6 7 5 2 2 3 4 0 1 1 2 1 5 4 2 1 2 2 2 2 1 1 3 3 4 4 4 5 6 6 5 5 6 6 6 5 4 4 4 4 4 4
4 5 8 7 5 1 2 6 4 2 2 1 3 5 5 4 3 2 2 3 2 1 1 3 3 2 4 5 7 7 6 5 5 5 6 6 5 4 3 3 3 4 4 4
4 4 8 4 1 2 5 3 3 3 2 2 2 3 2 2 2 2 2 3 2 1 3 3 3 3 3 5 6 5 4 4 5 5 5 4 4 4 4 4 4 4 4 4
7 7 4 2 2 2 1 1 2 2 3 1 1 2 3 3 3 3 3 3 3 3 3 4 3 3 5 6 4 3 4 5 5 5 5 4 5 5 4 4 4 4 4 4
2 4 3 3 3 3 2 1 2 2 2 1 1 2 3 4 4 4 4 4 3 3 3 4 4 4 5 5 4 4 4 5 5 5 4 4 4 5 5 5 5 5 5 5
3 5 5 4 4 3 4 3 3 2 2 2 1 3 3 3 4 4 4 4 3 3 4 5 4 4 4 4 4 4 5 5 5 5 5 5 5 5 6 6 7 7 6 6
6 5 4 6 5 4 3 3 3 3 4 4 3 4 4 4 5 5 5 4 4 4 4 4 4 4 4 4 4 4 4 5 4 4 4 4 4 4 6 6 8 9 8 7
6 5 5 5 4 3 3 3 3 3 3 4 4 4 4 5 5 5 5 4 5 5 5 4 4 4 5 4 4 4 5 5 4 4 4 4 4 5 4 4 5 7 9 10
4 2 3 4 4 4 4 4 4 4 4 4 4 4 4 4 4 5 5 5 5 5 5 4 4 5 5 4 4 4 4 4 4 4 4 4 5 5 5 4 4 3 5 8
4 3 4 4 4 4 4 4 4 5 5 5 4 4 4 4 5 6 6 5 4 4 5 4 4 6 5 3 4 4 3 3 3 3 3 4 4 3 3 4 4 3 2 3
4 2 2 2 3 4 4 4 4 5 5 5 5 5 5 5 5 5 5 4 4 5 6 5 5 6 4 3 3 3 3 5 4 3 3 3 3 4 4 4 4 3 3 3
3 3 3 3 4 4 4 5 4 5 5 5 5 5 4 4 4 5 6 5 5 5 5 5 5 5 4 3 3 3 2 3 4 3 3 4 4 5 4 4 4 4 4 4
5 5 5 4 4 4 5 5 4 4 4 4 4 3 3 3 4 5 6 5 4 4 4 4 4 4 3 3 2 2 2 2 3 3 3 3 4 4 4 4 4 4 3 3
2 3 3 3 3 2 2 3 3 3 3 3 2 3 3 4 4 5 5 4 4 4 5 4 4 3 3 3 3 2 2 2 3 2 3 4 3 3 3 4 4 4 4 3
1 1 1 1 1 1 2 2 2 2 2 2 2 3 4 4 4 4 4 4 3 4 5 4 4 3 3 3 3 2 2 3 3 3 2 2 3 2 3 3 4 4 4 4
1 1 1 1 2 2 2 2 2 2 3 2 2 3 4 4 4 4 3 4 5 5 4 5 3 3 3 3 3 2 2 2 3 2 2 3 3 3 3 3 3 3 3 3
2 1 2 1 1 2 3 2 2 2 2 2 3 3 3 4 4 4 4 3 4 5 4 3 3 4 5 4 2 2 2 2 2 2 2 2 2 3 3 3 3 3 3 3
2 2 2 2 2 2 3 2 2 2 2 2 3 3 3 3 2 3 4 4 4 5 4 3 4 6 7 3 2 1 1 1 1 1 1 1 2 2 2 2 2 2 2 2
3 3 2 2 1 1 3 3 3 2 2 3 3 3 3 3 3 3 3 5 7 7 4 4 6 6 6 2 2 1 1 1 1 1 1 1 1 1 1 1 1 1 1 1
2 2 2 1 1 1 2 3 3 3 2 2 3 3 2 2 2 3 3 4 6 6 4 5 7 6 4 2 2 2 2 1 1 1 0 0 1 1 1 1 1 1 1 1
2 2 2 2 2 2 1 1 2 2 2 2 3 2 2 2 2 3 3 4 5 6 5 4 4 4 3 2 2 2 2 2 2 2 1 1 1 1 1 1 1 1 1 1
2 2 2 2 2 2 1 1 2 2 2 2 2 3 2 2 2 3 3 3 3 3 3 3 3 3 3 3 3 3 2 2 2 2 2 1 1 1 1 1 1 1 1 1
Wind_Direction
234 249 244 246 257 250 217 203 207 235 232 252 243 224 220 203 196 178 190 188 188 193 200 205 208 211 204 209 209 191 180 185 197 196 193 194 191 191 187 184 186 185 181 186
284 281 279 273 264 251 241 228 220 236 257 258 249 221 151 189 172 188 223 212 213 206 198 207 211 214 208 211 215 190 185 199 197 187 187 192 197 189 185 191 191 184 190 192
271 304 344 272 247 226 224 217 195 222 241 263 272 219 205 207 208 212 220 224 219 222 214 213 214 208 207 210 211 195 195 200 195 186 190 197 197 188 191 196 191 190 197 194
234 2 245 247 263 219 203 250 230 222 237 215 224 230 214 193 194 219 226 228 226 228 231 224 214 210 207 197 200 203 202 205 203 195 194 195 192 199 207 199 192 196 200 200
149 222 271 287 279 220 184 285 292 215 243 258 27 31 325 278 215 217 229 234 231 223 220 225 219 209 193 190 200 205 212 215 211 202 195 191 196 206 205 197 203 204 200 198
153 194 237 252 271 277 100 277 306 313 243 257 68 41 275 287 285 284 280 265 250 250 228 234 236 199 187 199 206 215 219 220 213 205 201 202 205 204 206 203 212 205 211 208
183 217 255 262 285 25 169 242 277 276 244 221 216 221 246 273 281 268 265 272 269 257 246 251 251 199 200 210 221 224 221 217 212 210 211 209 205 202 201 207 211 212 218 227
170 204 250 273 19 182 227 256 283 292 277 253 262 279 272 260 275 283 281 283 278 255 262 265 248 212 218 232 236 229 216 214 217 217 219 216 203 205 199 197 208 220 221 234
190 214 245 278 227 258 246 267 289 301 299 267 289 294 287 279 271 272 271 268 264 249 261 267 246 223 231 245 240 221 215 222 225 222 221 210 202 204 203 200 206 218 219 229
260 273 287 312 331 334 325 298 302 315 318 338 303 291 292 289 288 285 282 276 272 265 265 269 259 246 242 245 228 213 222 228 222 217 220 218 210 206 205 207 211 216 220 229
266 282 317 328 331 330 336 345 349 345 328 308 299 290 282 284 289 283 278 276 267 257 258 266 261 257 259 244 223 221 225 227 225 216 213 218 220 218 214 215 211 214 217 216
234 240 245 274 294 311 324 323 324 331 326 315 292 282 287 281 275 276 277 273 269 268 272 278 275 271 271 254 229 223 232 231 224 219 217 216 221 245 244 237 236 231 226 220
232 251 248 264 285 300 300 300 299 296 287 295 296 284 281 278 277 279 282 274 264 262 268 275 274 277 280 266 243 230 231 230 224 220 218 215 215 218 239 264 248 238 234 232
252 261 280 281 285 297 298 299 301 299 289 277 275 280 282 284 290 292 284 275 270 269 272 272 275 277 281 271 249 243 238 234 226 218 214 217 219 221 220 224 238 254 247 235
265 249 244 266 285 298 301 309 313 307 301 296 288 281 279 284 287 287 285 279 277 278 278 277 279 280 284 272 250 241 239 234 225 219 212 213 215 216 219 224 229 239 256 252
269 279 271 286 295 302 313 314 302 295 293 292 293 285 279 280 284 287 287 279 268 266 269 270 272 276 279 264 252 250 244 247 236 219 214 214 210 211 215 218 221 224 228 232
252 267 270 283 289 295 298 293 284 284 288 289 290 288 291 298 299 297 297 288 265 259 263 265 272 280 281 264 249 251 251 250 243 231 221 219 214 213 213 213 219 225 231 227
235 240 238 240 253 279 297 301 295 290 286 287 297 304 305 302 297 295 296 298 292 288 280 273 278 292 290 278 265 259 250 239 227 222 223 224 222 216 214 216 221 224 230 226
259 257 259 257 257 265 280 293 298 304 311 315 319 308 300 299 299 302 310 313 305 294 290 288 296 298 293 285 283 262 254 248 244 235 226 233 234 224 216 215 219 222 219 214
315 298 306 310 312 298 298 299 305 313 314 321 328 327 324 315 311 316 322 313 295 283 286 299 299 286 283 284 291 268 254 244 241 237 227 221 223 225 226 223 220 220 218 216
312 316 322 323 316 311 305 305 316 316 314 320 323 315 313 314 318 323 326 316 311 312 310 308 307 296 293 298 293 275 264 254 243 232 226 224 225 228 229 228 228 226 223 220
303 296 294 302 319 312 311 315 317 320 328 336 338 332 329 326 325 327 321 302 301 314 320 314 310 314 319 317 297 284 273 262 255 242 235 229 224 226 229 231 231 230 229 226
290 281 283 285 286 295 316 328 328 329 327 323 320 314 309 308 311 321 320 316 312 318 320 309 316 326 328 332 321 306 295 287 280 264 256 246 233 228 227 231 235 231 229 229
302 294 291 296 318 335 324 317 321 323 318 314 312 313 317 324 322 311 298 315 327 328 325 321 327 333 338 341 335 333 327 314 305 294 280 271 264 259 243 225 228 230 228 235
293 289 287 308 319 302 297 310 323 326 326 322 319 322 321 308 301 308 316 322 331 337 334 337 341 338 338 341 346 340 338 335 327 325 330 307 288 275 270 249 238 240 246 244
280 280 275 263 258 263 282 306 311 305 303 311 317 322 323 320 316 317 324 330 336 338 337 335 338 342 350 355 357 356 356 354 357 1 1 349 339 328 322 320 308 283 275 271
289 290 297 303 298 281 275 281 288 290 283 281 300 308 313 320 328 336 338 336 334 332 331 337 344 350 355 357 357 355 354 357 0 359 355 355 349 341 340 331 320 321 310 302